sat.trackr.live / text

‹ back to catalog

YAM-12

NORAD 69003 · 2026-100Z

PAYLOAD ACTIVE UNKNOWN

§ Identity

Operator
Country
US
Launch date
2026-05-03
Launch site
AFWTR
Launch vehicle
Mass (kg)
RCS (m²)

External: N2YO · Heavens-Above · Gunter

§ Orbital elements

Epoch: 2026-09-20T00:44:03.681888Z

Period
96.61 min
Inclination
97.7755°
Eccentricity
0.0001798
Mean motion
14.90498398 rev/d
Perigee alt
595.1 km
Apogee alt
597.6 km
Semi-major
6,974.5 km
B*
8.4231e-5
RAAN
158.8030°
Arg perigee
73.2415°
Mean anomaly
286.9001°
Rev number
2,081

§ Raw data

YAM-121 69003U 26100Z   26263.03059817  .00000767  00000+0  84231-4 0  99902 69003  97.7755 158.8030 0001798  73.2415 286.9001 14.90498398 20814

JSON: /api/v1/satellites/69003 · /tle

For live sub-satellite position, see the globe view (requires WebGL).

§ Visibility from observer

Set your observer location to see the next 7 days of passes ≥ 10°. The values pass through the URL so the page stays shareable.

No JS? Fill the form by hand. The geolocation button needs JavaScript.

§ Radio — SatNOGS DB

ModeDescriptionDownlinkUplink
UNKNOWN S-band telemetry 2.255 GHz

1 transmitter · refreshed weekly from db.satnogs.org